Location: Unspecified
(35.7250°N, 0.0000°E)
Time: 05:58:03
(UTC+00:00)

Courier 1B Rocket - Pass Details

Date: 24 June 2019
Orbit: 920 x 1202 km, 28.2° (Epoch: 12 October)

Event Time Altitude Azimuth Distance (km) Brightness Sun altitude
Exits shadow 03:39:04 15° 228° (SW) 2,550 6.5 -11.8°
Maximum altitude 03:44:18 37° 168° (SSE) 1,540 5.8 -11.0°
Drops below altitude 10° 03:50:21 10° 103° (ESE) 2,739 7.9 -10.0°
Sets 03:53:07 0° 95° (E) 3,650 8.8 -9.6°
